Regional Weather Roundup
Issued by NWS Green Bay, WI

Home | Current Version | Previous Version | Text Only | Print | Product List | Glossary On
Versions: 1 2 3 4 5 6 7 8 9 10 11 12 13 14 15 16 17 18 19 20 21 22 23 24 25 26 27 28 29 30 31 32 33 34 35 36 37 38 39 40 41 42 43 44 45 46 47 48 49 50
000
ASUS43 KGRB 190810
RWRGRB

NORTH-CENTRAL AND NORTHEAST WISCONSIN REGIONAL WEATHER ROUNDUP
NATIONAL WEATHER SERVICE GREEN BAY WI
300 AM CDT FRI SEP 19 2014

WIZ005-009-010>012-018-019-190900-
NORTH CENTRAL WISCONSIN

CITY           SKY/WX    TMP DP  RH WIND       PRES   REMARKS
IRONWOOD       CLEAR     52  50  93 S9G18     30.00F
MANITOWISH WTR CLOUDY    50  50 100 S10       30.05F FOG
ARBOR VITAE    CLOUDY    52  50  93 S12G18    30.07F FOG
EAGLE RIVER    FOG       47  47 100 S5        30.09F VSB 3/4
LAND O LAKES   CLOUDY    49  48  97 S5        30.09F FOG
RHINELANDER    CLOUDY    49  48  97 S7        30.10F FOG
PHILLIPS       CLOUDY    51  49  95 S12       30.05F
ANTIGO         FOG       47  47 100 S9        30.13F VSB 1/4
TOMAHAWK       CLOUDY    48  47  97 S3        30.10F FOG
MERRILL        FOG       50  50 100 SE6       30.11F VSB 3/4
$$

WIZ013-073-190900-
NORTHEAST WISCONSIN

CITY           SKY/WX    TMP DP  RH WIND       PRES   REMARKS
IRON MOUNTAIN  CLOUDY    47  45  93 SE5       30.12S
MARINETTE      PTCLDY    48  45  87 SW3       30.13S
OCONTO         CLEAR     41  41 100 CALM      30.14S
$$

WIZ017-030-035>037-045-190900-
CENTRAL WISCONSIN

CITY           SKY/WX    TMP DP  RH WIND       PRES   REMARKS
MEDFORD        CLOUDY    49  49  99 S12       30.08F FOG
WAUSAU         CLOUDY    51  50  96 SE7       30.11S FOG
MOSINEE        FOG       48  48 100 S8        30.13S VSB 1/2
MARSHFIELD     FOG       51  50  96 S8        30.10F VSB 1/2
WISC RAPIDS    CLOUDY    51  50  96 S5        30.13S FOG
STEVENS POINT  CLOUDY    49  48  99 S3        30.13S FOG
WAUPACA        FOG       47  46  95 W3        30.14S VSB 1
SHAWANO        CLEAR     46  44  93 CALM      30.14S FOG
CLINTONVILLE   CLEAR     43  41  93 CALM      30.13F FOG
$$

WIZ038-039-048-051-190900-
FOX VALLEY

CITY           SKY/WX    TMP DP  RH WIND       PRES   REMARKS
NWS GREEN BAY  CLEAR     43  42  97 CALM      30.14F
APPLETON       CLEAR     50  48  93 S6        30.14S
OSHKOSH        PTCLDY    49  48  97 S10       30.13S FOG
FOND DU LAC    CLOUDY    51  50  96 S14       30.14F FOG
$$

WIZ022-050-052-190900-
EAST CENTRAL WISCONSIN

CITY           SKY/WX    TMP DP  RH WIND       PRES   REMARKS
STURGEON BAY   CLEAR     50  46  87 SE6       30.15S
MANITOWOC      CLEAR     44  43  96 CALM      30.14F
SHEBOYGAN      MOCLDY    43  42  97 SW3       30.15F
$$

LMZ563-521-522-541>543-190900-
LAKESHORE

STATION/POSITION TIME  TEMP    WIND        PRES    VSBY  WAVE
                       AIR SEA DIR/SP/G                  HT/PER
                 (UTC) (F)     (DEG/KT/KT) (MB)    (MI)  (FT/S)
SHEBOYGAN LKSHOR 0800   50 49  210/  3/  4 1021.3F
KEWAUNEE LKSHORE 0800   44     310/  3/  3 1019.8F
NORTHPORT PIER   0800   52     180/  2/  5 1021.0R
N MID LAKE BUOY  0800   57 58  200/ 16/ 19 1020.8F         1/ 3
SISTER BAY LKSHO 0800   50        CALM       N/A
CHAMBERS ISLAND  0800   51     150/  3/  5 1021.0S
MENOMINEE LKSHOR 0800   54     160/ 11/ 13 1021.0F
$$


USA.gov is the U.S. government's official web portal to all federal, state and local government web resources and services.